Tracking 30923 objects as of 1-Jul-2025
HD Live streaming from Space Station
objects crossing your sky now

ONEWEB-0362

Track ONEWEB-0362 now!
10-day predictions
ONEWEB-0362 is classified as:


NORAD ID: 49288
Int'l Code: 2021-090K
Perigee: 1,191.4 km
Apogee: 1,194.4 km
Inclination: 87.9 °
Period: 109.1 minutes
Semi major axis: 7563 km
RCS: Unknown
Launch date: October 14, 2021
Source: United Kingdom (UK)
Launch site: VOSTOCHNY COSMODROME (VOSTO)
Your satellite tracking list
Your tracking list is empty




NASA's NSSDC Master Catalog

Two Line Element Set (TLE):
1 49288U 21090K   25181.76639051  .00000026  00000-0  32634-4 0  9997
2 49288  87.9215  14.8500 0002021  86.1705 273.9659 13.19726286180561
Source of the keplerian elements: AFSPC